FW7023 Weather Reports


Display with metric or nautical units.
time (UTC)temp
F
wind
direction
speed
MPH
gust
MPH
rain 1hr
in
rain 24hr
in
rain mn
in
humidity
%
barometer
mb
20240527062551 67 343 0.0 0.0 0.00 0.00 0.00 81 1006.7
20240527062050 67 342 0.0 0.0 0.00 0.00 0.00 81 1006.5
20240527061548 68 342 0.0 0.0 0.00 0.00 0.00 80 1006.6
20240527061047 68 343 0.0 0.0 0.00 0.00 0.00 79 1006.5
20240527060546 68 343 0.0 0.0 0.00 0.00 0.00 79 1006.6
20240527060046 68 343 0.0 0.0 0.00 0.00 0.00 80 1006.6
20240527055546 67 343 0.0 1.0 0.00 0.00 0.00 81 1006.5
20240527055045 67 197 0.0 0.0 0.00 0.00 0.00 83 1006.2
20240527054543 67 197 0.0 0.0 0.00 0.00 0.00 83 1006.5
20240527054042 67 197 0.0 0.0 0.00 0.00 0.00 83 1006.1
20240527053541 67 197 0.0 0.0 0.00 0.00 0.00 83 1005.9
20240527053041 67 197 0.0 0.0 0.00 0.00 0.00 82 1006.1
20240527052540 68 197 0.0 0.0 0.00 0.00 0.00 82 1006.0
20240527052038 68 197 0.0 0.0 0.00 0.00 0.00 81 1005.9
20240527051536 68 197 0.0 0.0 0.00 0.00 0.00 80 1006.0
20240527051035 69 197 0.0 0.0 0.00 0.00 0.00 79 1006.0
20240527050534 69 197 0.0 0.0 0.00 0.00 0.00 78 1005.6
20240527050034 69 197 0.0 0.0 0.00 0.00 0.00 77 1005.6
20240527045533 69 197 0.0 0.0 0.00 0.59 0.59 76 1005.5
20240527045031 70 197 0.0 1.0 0.00 0.59 0.59 75 1005.4
20240527044528 71 197 0.0 0.0 0.00 0.59 0.59 74 1005.5
20240527044028 71 196 0.0 1.0 0.00 0.59 0.59 73 1005.3
20240527043527 72 196 0.0 0.0 0.00 0.59 0.59 71 1005.4
20240527043026 72 197 0.0 0.0 0.00 0.59 0.59 70 1005.4
20240527042526 72 199 2.0 3.0 0.00 0.59 0.59 70 1005.4
20240527042025 71 235 0.0 0.0 0.00 0.59 0.59 71 1005.3
20240527041524 71 233 0.0 0.0 0.00 0.59 0.59 73 1005.3
20240527041024 71 233 0.0 0.0 0.00 0.59 0.59 73 1005.2
20240527040523 70 233 0.0 0.0 0.00 0.59 0.59 74 1005.5
20240527040022 70 233 0.0 0.0 0.00 0.59 0.59 76 1005.4
20240527035521 70 233 0.0 0.0 0.00 0.59 0.59 78 1005.5
20240527035020 70 233 0.0 0.0 0.00 0.59 0.59 77 1005.5
20240527034518 70 233 0.0 0.0 0.00 0.59 0.59 77 1005.3
20240527034017 70 233 0.0 0.0 0.00 0.59 0.59 76 1005.5
20240527033516 70 233 0.0 0.0 0.00 0.59 0.59 75 1005.5
20240527033014 70 233 0.0 0.0 0.00 0.59 0.59 75 1005.3
20240527032513 69 233 0.0 0.0 0.00 0.59 0.59 75 1005.0
20240527032012 69 233 0.0 0.0 0.00 0.59 0.59 77 1004.6
20240527031510 69 233 0.0 0.0 0.00 0.59 0.59 77 1004.8
20240527031009 69 233 0.0 0.0 0.00 0.59 0.59 77 1005.0
20240527030507 69 233 0.0 0.0 0.00 0.59 0.59 77 1005.0
20240527030006 69 233 0.0 0.0 0.00 0.59 0.59 76 1005.2
20240527025505 69 233 0.0 0.0 0.00 0.59 0.59 76 1005.0
20240527025005 70 233 0.0 0.0 0.00 0.59 0.59 75 1004.7
20240527024504 70 233 1.0 2.0 0.00 0.59 0.59 75 1004.6
20240527024003 70 233 1.0 2.0 0.00 0.59 0.59 75 1004.8
20240527023503 71 233 0.0 0.0 0.00 0.59 0.59 74 1004.6
20240527023001 71 233 0.0 0.0 0.00 0.59 0.59 74 1004.5
20240527022500 71 233 0.0 0.0 0.00 0.59 0.59 73 1004.4
20240527021959 71 233 0.0 0.0 0.00 0.59 0.59 73 1004.4
20240527021457 72 233 1.0 1.0 0.00 0.59 0.59 72 1004.3
20240527020956 73 233 1.0 1.0 0.00 0.59 0.59 71 1004.5
20240527020454 73 233 0.0 0.0 0.00 0.59 0.59 70 1004.3
20240527015954 73 233 0.0 0.0 0.00 0.59 0.59 67 1004.2
20240527015453 73 233 0.0 0.0 0.00 0.59 0.59 69 1004.2
20240527014952 73 233 0.0 0.0 0.00 0.59 0.59 68 1004.0
20240527014450 73 233 0.0 0.0 0.00 0.59 0.59 69 1003.8
20240527013948 74 233 1.0 2.0 0.00 0.59 0.59 68 1003.9
20240527013447 75 233 0.0 0.0 0.00 0.59 0.59 65 1003.9
20240527012945 76 233 1.0 1.0 0.00 0.59 0.59 63 1003.7
20240527012444 76 233 0.0 0.0 0.00 0.59 0.59 63 1003.9
20240527011942 77 233 1.0 1.0 0.00 0.59 0.59 62 1003.3
20240527011441 77 262 0.0 0.0 0.00 0.59 0.59 60 1003.2
20240527010937 77 250 0.0 0.0 0.00 0.59 0.59 59 1003.3
20240527010437 77 250 0.0 1.0 0.00 0.59 0.59 59 1003.2
20240527005936 78 324 1.0 1.0 0.00 0.59 0.59 58 1003.2
20240527005435 78 11 0.0 0.0 0.00 0.59 0.59 58 1003.1
20240527004934 78 3 2.0 2.0 0.00 0.59 0.59 58 1003.1
20240527004433 78 347 0.0 0.0 0.00 0.59 0.59 58 1003.0
20240527003932 78 345 0.0 0.0 0.00 0.59 0.59 59 1003.1
20240527003431 78 12 0.0 1.0 0.00 0.59 0.59 58 1002.8
20240527002930 79 239 0.0 1.0 0.00 0.59 0.59 57 1002.8
20240527002430 79 344 1.0 2.0 0.00 0.59 0.59 56 1002.7
20240527001928 79 350 0.0 0.0 0.00 0.59 0.59 57 1002.7
20240527001427 79 247 0.0 1.0 0.00 0.59 0.59 57 1002.8
20240527000925 79 334 1.0 2.0 0.00 0.59 0.59 58 1002.6
20240527000424 79 347 0.0 0.0 0.00 0.59 0.59 58 1002.5
20240526235923 80 3 1.0 1.0 0.00 0.59 0.59 56 1002.5
20240526235421 80 354 1.0 2.0 0.00 0.59 0.59 56 1002.3
20240526234920 80 357 0.0 0.0 0.00 0.59 0.59 56 1002.4
20240526234418 80 253 0.0 0.0 0.00 0.59 0.59 56 1002.2
20240526233918 80 357 0.0 2.0 0.00 0.59 0.59 54 1002.1
20240526233417 80 257 1.0 2.0 0.00 0.59 0.59 54 1002.2
20240526232914 80 153 0.0 0.0 0.00 0.59 0.59 55 1001.9
20240526232414 80 317 0.0 0.0 0.00 0.59 0.59 55 1001.8
20240526231912 80 358 0.0 1.0 0.00 0.59 0.59 54 1001.9
20240526231411 80 12 1.0 2.0 0.00 0.59 0.59 54 1002.0
20240526230910 80 346 0.0 0.0 0.00 0.59 0.59 53 1002.1
20240526230409 80 333 1.0 1.0 0.00 0.59 0.59 53 1002.1
20240526225907 80 66 0.0 1.0 0.00 0.59 0.59 53 1002.1
20240526225406 81 17 2.0 5.0 0.00 0.59 0.59 52 1002.2
20240526224904 81 8 3.0 3.0 0.00 0.59 0.59 53 1002.0
20240526224402 81 47 1.0 1.0 0.00 0.59 0.59 52 1001.9
20240526223903 82 322 0.0 1.0 0.00 0.59 0.59 52 1001.9
20240526223400 82 176 0.0 1.0 0.00 0.59 0.59 54 1001.9
20240526222859 82 25 3.0 3.0 0.00 0.59 0.59 53 1001.9
20240526222357 81 312 0.0 0.0 0.00 0.59 0.59 54 1002.0
20240526221855 82 34 4.0 5.0 0.00 0.59 0.59 52 1001.6
20240526221355 82 16 2.0 2.0 0.00 0.59 0.59 52 1001.6
20240526220854 82 12 2.0 5.0 0.00 0.59 0.59 52 1001.5
20240526220352 81 325 0.0 0.0 0.00 0.59 0.59 52 1001.6
20240526215852 82 344 1.0 1.0 0.00 0.59 0.59 52 1001.7
20240526215352 82 40 0.0 0.0 0.00 0.59 0.59 51 1001.3
20240526214850 82 22 1.0 1.0 0.00 0.59 0.59 51 1001.7
20240526214349 82 340 1.0 1.0 0.00 0.59 0.59 51 1001.6
20240526213848 82 204 0.0 1.0 0.00 0.59 0.59 51 1001.2
20240526213347 83 33 4.0 7.0 0.00 0.59 0.59 49 1001.6
20240526212846 82 305 1.0 2.0 0.00 0.59 0.59 49 1001.7
20240526212344 82 276 0.0 1.0 0.00 0.59 0.59 50 1001.5
20240526211843 82 356 1.0 2.0 0.00 0.59 0.59 50 1001.7
20240526211341 82 16 4.0 6.0 0.00 0.59 0.59 49 1001.5
20240526210839 81 274 0.0 1.0 0.00 0.59 0.59 51 1001.3
20240526210337 82 359 3.0 5.0 0.00 0.59 0.59 51 1001.3
20240526205837 82 25 0.0 1.0 0.00 0.59 0.59 50 1001.3
20240526205336 83 246 2.0 3.0 0.00 0.59 0.59 50 1001.0
20240526204835 82 320 1.0 2.0 0.00 0.59 0.59 49 1001.1
20240526204334 82 319 0.0 1.0 0.00 0.59 0.59 53 1001.2
20240526203833 82 251 0.0 1.0 0.00 0.59 0.59 52 1001.5
20240526203331 82 324 0.0 1.0 0.00 0.59 0.59 53 1001.2
20240526202831 81 335 3.0 3.0 0.00 0.59 0.59 51 1001.6
20240526202330 82 283 0.0 1.0 0.00 0.59 0.59 52 1001.5
20240526201828 81 139 0.0 0.0 0.00 0.59 0.59 56 1001.5
20240526201327 81 356 2.0 3.0 0.00 0.59 0.59 52 1001.6
20240526200826 80 315 1.0 1.0 0.00 0.59 0.59 53 1001.8
20240526200326 80 274 0.0 0.0 0.00 0.59 0.59 55 1001.6
20240526195824 82 355 2.0 2.0 0.00 0.59 0.59 53 1001.3
20240526195322 82 356 2.0 2.0 0.00 0.59 0.59 54 1001.5
20240526194821 83 10 2.0 3.0 0.00 0.59 0.59 52 1001.5
20240526194320 82 209 0.0 1.0 0.00 0.59 0.59 52 1001.6
20240526193819 83 26 3.0 5.0 0.00 0.59 0.59 51 1001.2
20240526193319 83 10 4.0 6.0 0.00 0.59 0.59 52 1001.2
20240526192819 83 308 0.0 0.0 0.00 0.59 0.59 54 1001.1
20240526192319 81 258 0.0 0.0 0.00 0.59 0.59 54 1001.2
20240526191817 81 0 3.0 3.0 0.00 0.59 0.59 54 1001.5
20240526191317 82 109 1.0 1.0 0.00 0.59 0.59 56 1001.5
20240526190816 82 192 0.0 0.0 0.00 0.59 0.59 57 1001.3
20240526190314 81 40 0.0 1.0 0.00 0.59 0.59 59 1001.3
20240526185814 81 270 0.0 0.0 0.00 0.59 0.59 61 1001.5
20240526185312 82 1 3.0 5.0 0.00 0.59 0.59 58 1001.3
20240526184810 81 31 2.0 2.0 0.00 0.59 0.59 61 1001.1
20240526184309 81 339 2.0 3.0 0.00 0.59 0.59 61 1001.0
20240526183807 81 357 1.0 2.0 0.00 0.59 0.59 59 1001.2
20240526183305 82 46 1.0 1.0 0.00 0.59 0.59 57 1001.2
20240526182805 80 180 0.0 1.0 0.00 0.59 0.59 64 1001.2
20240526182304 80 359 2.0 2.0 0.00 0.59 0.59 60 1001.2
20240526181803 80 28 1.0 1.0 0.00 0.59 0.59 62 1001.3
20240526181303 80 81 0.0 0.0 0.00 0.59 0.59 62 1001.0
20240526180801 80 357 1.0 2.0 0.00 0.59 0.59 61 1001.1
20240526180259 79 338 1.0 1.0 0.00 0.59 0.59 61 1001.2
20240526175758 80 16 2.0 3.0 0.00 0.59 0.59 60 1001.2
20240526175257 81 163 2.0 2.0 0.00 0.59 0.59 62 1001.2
20240526174756 81 203 1.0 1.0 0.00 0.59 0.59 63 1001.3
20240526174254 80 305 1.0 2.0 0.00 0.59 0.59 62 1001.1
20240526173753 79 358 1.0 2.0 0.00 0.59 0.59 61 1001.3
20240526173253 79 359 2.0 2.0 0.00 0.59 0.59 62 1001.3
20240526172750 78 15 0.0 1.0 0.00 0.59 0.59 63 1001.3
20240526172248 79 4 0.0 1.0 0.00 0.59 0.59 62 1001.2
20240526171746 79 1 2.0 2.0 0.00 0.59 0.59 63 1001.2
20240526171246 79 4 1.0 2.0 0.00 0.59 0.59 64 1001.1
20240526170747 80 205 0.0 0.0 0.00 0.59 0.59 61 1001.1
20240526170245 78 10 2.0 2.0 0.00 0.59 0.59 65 1001.0
20240526165745 78 149 0.0 0.0 0.00 0.59 0.59 66 1000.9
20240526165244 78 304 0.0 0.0 0.00 0.59 0.59 65 1001.1
20240526164743 77 6 0.0 0.0 0.00 0.59 0.59 64 1001.0
20240526164242 77 0 2.0 2.0 0.00 0.59 0.59 65 1001.1
20240526163741 77 354 0.0 0.0 0.00 0.59 0.59 65 1001.2
20240526163241 77 5 1.0 2.0 0.00 0.59 0.59 64 1001.2
20240526162739 76 282 0.0 1.0 0.00 0.59 0.59 63 1001.3
20240526162237 77 328 1.0 2.0 0.00 0.59 0.59 64 1001.3
20240526161735 75 4 0.0 0.0 0.00 0.59 0.59 66 1001.2
20240526161234 77 316 2.0 2.0 0.00 0.59 0.59 64 1001.5
20240526160734 76 317 2.0 2.0 0.00 0.59 0.59 66 1001.5
20240526160232 76 9 0.0 2.0 0.00 0.59 0.59 66 1001.6
20240526155730 76 356 1.0 2.0 0.00 0.59 0.59 66 1001.6
20240526155228 76 356 1.0 1.0 0.00 0.59 0.59 64 1001.6
20240526154728 77 201 0.0 1.0 0.00 0.59 0.59 63 1001.5
20240526154226 78 201 3.0 3.0 0.00 0.59 0.59 62 1001.5
20240526153725 77 176 3.0 5.0 0.00 0.59 0.59 63 1001.2
20240526153223 77 178 0.0 1.0 0.00 0.59 0.59 65 1001.3
20240526152723 76 216 3.0 3.0 0.00 0.59 0.59 65 1001.3
20240526152221 75 227 0.0 0.0 0.00 0.59 0.59 67 1001.0
20240526151721 75 309 0.0 1.0 0.00 0.59 0.59 66 1000.9
20240526151219 74 130 1.0 2.0 0.00 0.59 0.59 67 1000.8
20240526150718 75 216 3.0 5.0 0.00 0.59 0.59 65 1000.6
20240526150217 74 207 0.0 0.0 0.00 0.59 0.59 68 1000.7
20240526145716 74 226 3.0 5.0 0.00 0.59 0.59 67 1000.4
20240526145216 74 230 0.0 1.0 0.00 0.59 0.59 68 1000.4
20240526144716 73 95 2.0 3.0 0.00 0.59 0.59 69 1000.4
20240526144213 73 197 3.0 3.0 0.00 0.59 0.59 71 1000.3
20240526143712 71 212 3.0 7.0 0.00 0.59 0.59 73 1000.3
20240526143211 71 204 0.0 0.0 0.00 0.59 0.59 74 1000.4
20240526142711 70 258 4.0 7.0 0.00 0.59 0.59 76 1000.3
20240526142209 69 212 5.0 7.0 0.00 0.59 0.59 79 1000.1
20240526141708 69 210 6.0 7.0 0.00 0.59 0.59 80 1000.4
20240526141206 68 166 10.0 15.0 0.00 0.59 0.59 80 1000.4
20240526140705 68 282 2.0 2.0 0.00 0.59 0.59 83 1000.7
20240526140202 68 217 3.0 5.0 0.00 0.59 0.59 83 1000.5
20240526135702 67 189 7.0 9.0 0.00 0.59 0.59 85 1000.6
20240526135200 66 207 5.0 7.0 0.00 0.59 0.59 88 1000.5
20240526134700 66 200 1.0 2.0 0.00 0.59 0.59 89 1000.4
20240526134159 65 195 3.0 3.0 0.00 0.59 0.59 90 1000.3
20240526133657 64 177 6.0 8.0 0.00 0.59 0.59 93 1000.4
20240526133156 64 206 6.0 9.0 0.00 0.59 0.59 95 1000.2
20240526132655 63 241 5.0 7.0 0.00 0.59 0.59 97 1000.4
20240526132154 63 206 3.0 5.0 0.00 0.59 0.59 97 1000.0
20240526131653 62 231 2.0 2.0 0.00 0.59 0.59 98 1000.0
20240526131150 62 204 3.0 7.0 0.00 0.59 0.59 98 999.9
20240526130649 62 245 5.0 6.0 0.00 0.59 0.59 98 1000.0
20240526130148 62 213 0.0 0.0 0.00 0.59 0.59 98 1000.0
20240526125648 62 239 3.0 5.0 0.00 0.59 0.59 98 1000.1
20240526125147 62 163 1.0 2.0 0.00 0.59 0.59 99 999.8
20240526124646 62 222 4.0 7.0 0.00 0.59 0.59 98 1000.1
20240526124145 61 204 1.0 2.0 0.00 0.59 0.59 99 1000.1
20240526123645 61 157 3.0 5.0 0.00 0.59 0.59 99 1000.0
20240526123144 61 208 3.0 6.0 0.00 0.59 0.59 99 1000.0
20240526122643 61 168 0.0 1.0 0.00 0.59 0.59 99 999.7
20240526122143 61 214 3.0 5.0 0.00 0.59 0.59 99 1000.0
20240526121641 61 223 3.0 5.0 0.00 0.59 0.59 99 999.6
20240526121141 61 206 4.0 5.0 0.00 0.59 0.59 99 999.4
20240526120639 61 193 0.0 0.0 0.00 0.59 0.59 99 999.6
20240526120138 61 206 0.0 1.0 0.00 0.59 0.59 99 999.4
20240526115638 61 197 0.0 1.0 0.00 0.59 0.59 99 999.0
20240526115139 61 194 0.0 1.0 0.00 0.59 0.59 99 999.0
20240526114638 61 179 1.0 1.0 0.00 0.59 0.59 99 998.9
20240526114136 61 183 2.0 3.0 0.00 0.59 0.59 99 998.6
20240526113636 61 198 1.0 1.0 0.00 0.59 0.59 99 998.7
20240526113134 61 337 1.0 2.0 0.00 0.59 0.59 99 998.8
20240526112632 61 29 1.0 1.0 0.00 0.59 0.59 99 998.6
20240526112131 61 1 1.0 1.0 0.00 0.59 0.59 99 998.8
20240526111629 61 337 0.0 0.0 0.00 0.59 0.59 99 998.8
20240526111128 61 43 2.0 2.0 0.00 0.59 0.59 99 998.4
20240526110627 61 174 4.0 6.0 0.00 0.59 0.59 99 998.1
20240526110124 61 17 2.0 3.0 0.00 0.59 0.59 99 997.8
20240526105623 61 42 4.0 7.0 0.11 0.59 0.59 99 997.7
20240526105121 61 29 3.0 7.0 0.07 0.58 0.58 99 999.1
20240526104621 62 6 2.0 3.0 0.00 0.57 0.57 99 1001.9
20240526104119 62 229 0.0 0.0 0.07 0.57 0.57 98 1003.8
20240526103618 62 312 0.0 0.0 0.11 0.57 0.57 98 1003.3
20240526103115 62 207 0.0 0.0 0.04 0.55 0.55 98 1003.3
20240526102615 61 206 0.0 0.0 0.00 0.55 0.55 98 1003.1
20240526102114 61 219 0.0 0.0 0.00 0.55 0.55 98 1002.7
20240526101612 61 334 0.0 0.0 0.00 0.55 0.55 98 1002.8
20240526101111 61 359 2.0 2.0 0.00 0.55 0.55 98 1002.9
20240526100610 62 350 0.0 0.0 0.07 0.55 0.55 98 1003.4
20240526100108 61 217 0.0 0.0 0.11 0.55 0.55 97 1002.8
20240526095608 62 21 1.0 1.0 0.11 0.53 0.53 97 1000.4
20240526095108 62 16 2.0 2.0 0.18 0.53 0.53 97 1002.5
20240526094608 62 212 0.0 0.0 0.23 0.52 0.52 96 1003.2
20240526094107 62 310 0.0 0.0 0.16 0.50 0.50 96 1003.0
20240526093606 62 308 0.0 0.0 0.18 0.48 0.48 96 1003.8
20240526093106 62 292 2.0 2.0 0.26 0.47 0.47 96 1003.6
20240526092605 62 253 0.0 0.0 0.28 0.44 0.44 96 1003.5
20240526092104 62 319 0.0 0.0 0.30 0.42 0.42 95 1003.0
20240526091603 62 198 0.0 0.0 0.30 0.40 0.40 95 1004.0
20240526091101 62 171 0.0 0.0 0.11 0.36 0.36 95 1003.9
20240526090559 62 6 1.0 2.0 0.35 0.35 0.35 95 1003.5
20240526090059 62 13 6.0 11.0 0.78 0.33 0.33 95 1002.8
20240526085558 63 26 5.0 10.0 0.42 0.27 0.27 95 1002.2
20240526085058 63 23 2.0 3.0 0.00 0.20 0.20 95 1002.9
20240526084558 63 272 0.0 1.0 0.00 0.20 0.20 96 1003.4
20240526084057 63 256 0.0 0.0 0.00 0.20 0.20 96 1002.5
20240526083557 63 325 0.0 1.0 0.00 0.20 0.20 96 1002.2
20240526083057 64 270 0.0 1.0 0.00 0.20 0.20 96 1001.9
20240526082554 63 252 0.0 0.0 0.00 0.20 0.20 96 1001.8
20240526082054 64 243 0.0 0.0 0.00 0.20 0.20 96 1001.6
20240526081552 63 351 0.0 0.0 0.00 0.20 0.20 96 1001.0
20240526081052 64 268 0.0 0.0 0.00 0.20 0.20 96 1000.5
20240526080552 64 261 0.0 0.0 0.00 0.20 0.20 95 1000.6
20240526080052 64 247 0.0 0.0 0.00 0.20 0.20 95 1001.6
20240526075552 64 246 0.0 0.0 0.00 0.20 0.20 95 1001.3
20240526075051 64 237 0.0 0.0 0.00 0.20 0.20 94 1002.0
20240526074551 64 237 0.0 0.0 0.00 0.20 0.20 94 1002.3
20240526074049 64 237 0.0 0.0 0.00 0.20 0.20 93 1002.6
20240526073549 64 317 0.0 0.0 0.07 0.20 0.20 93 1002.8
20240526073048 64 316 0.0 0.0 0.18 0.20 0.20 92 1003.1
20240526072546 64 233 0.0 0.0 0.11 0.18 0.18 92 1003.3
20240526072046 64 230 0.0 0.0 0.11 0.16 0.16 91 1004.2
20240526071544 64 222 0.0 0.0 0.16 0.16 0.16 90 1004.3
20240526071042 64 212 0.0 1.0 0.11 0.15 0.15 90 1002.8
20240526070541 64 331 1.0 1.0 0.23 0.14 0.14 89 1003.0
20240526070041 65 355 1.0 1.0 0.42 0.13 0.13 88 1003.2
20240526065540 66 264 0.0 0.0 0.30 0.09 0.09 86 1003.9
20240526065040 66 348 0.0 2.0 0.18 0.05 0.05 84 1003.6
20240526064540 67 333 1.0 2.0 0.18 0.03 0.03 82 1002.6
20240526064038 67 267 0.0 0.0 0.11 0.02 0.02 78 1002.5
20240526063536 68 342 1.0 2.0 0.00 0.00 0.00 77 1002.7
20240526063036 68 331 0.0 1.0 0.00 0.00 0.00 77 1000.8